CAPE
468 493 860 1086 1065 766 632 711 800 896 932 754 670 619 583 553 778 790 643 375 750 935 1122 1158 1096 1039 878 581 331 263 297 193 148
477 515 934 855 788 645 594 680 785 881 777 531 492 381 347 594 726 731 733 656 717 625 756 899 927 933 815 598 419 332 297 318 140
499 583 705 735 578 538 554 814 802 758 693 568 373 207 223 461 586 610 647 431 834 861 933 745 620 762 789 669 435 292 186 61 41
580 780 769 553 380 358 478 615 680 630 465 289 104 95 159 367 443 368 543 332 449 704 793 893 762 702 628 553 347 269 197 94 74
277 578 630 396 328 298 289 270 295 212 157 90 53 54 64 184 226 247 285 479 318 305 509 688 478 668 725 621 563 421 528 405 223
184 89 191 274 232 156 138 152 228 178 98 52 26 66 125 110 198 232 264 417 339 335 436 360 240 441 642 590 629 530 401 264 97
49 5 0 14 21 30 33 67 98 144 30 23 25 88 40 40 45 130 317 402 519 447 332 245 212 375 549 521 640 545 294 195 129
3 11 13 85 12 35 35 24 30 44 20 15 9 21 40 23 1 0 114 334 328 390 367 295 277 336 367 401 433 325 193 122 51
9 27 36 59 88 5 0 0 7 14 23 14 10 3 11 15 3 0 0 27 159 198 228 254 267 157 141 337 286 288 149 57 0
0 6 2 2 58 38 4 3 0 6 5 3 12 6 8 0 0 0 0 0 0 3 6 112 229 187 128 269 249 178 122 11 0
0 3 6 19 11 31 14 10 4 0 0 3 0 2 1 0 0 0 0 0 0 0 0 0 2 163 213 168 150 36 4 5 0
0 0 0 16 37 14 7 7 7 2 1 0 0 0 0 0 0 0 0 2 0 0 0 0 0 0 8 64 129 82 16 9 15
0 0 0 0 1 5 2 1 0 1 2 1 0 0 0 0 0 0 1 4 1 0 0 0 0 0 0 9 55 21 14 81 58
0 0 0 0 0 3 4 2 4 2 3 0 2 4 1 0 0 0 0 2 0 0 0 0 0 0 0 0 4 69 10 0 7
0 0 0 0 0 0 0 2 9 0 0 0 2 6 0 0 0 0 0 0 1 0 0 0 0 0 0 0 0 0 8 0 0
0 0 0 0 0 0 0 0 0 0 0 0 0 7 0 0 0 0 0 0 0 0 0 0 0 0 0 0 0 0 0 0 0
0 0 0 0 0 0 0 0 0 0 0 0 0 0 0 0 0 0 0 0 0 0 0 0 0 0 0 0 0 0 0 0 0
0 0 0 0 0 0 0 0 0 0 0 0 0 0 0 0 0 0 0 0 0 0 0 0 0 0 0 0 0 0 0 0 0
0 0 0 0 0 0 0 0 0 0 0 0 0 0 0 0 0 0 0 0 0 0 0 0 0 0 0 0 0 0 0 2 5
0 0 0 0 0 0 0 0 0 0 0 0 0 0 0 0 0 0 0 0 0 0 0 0 0 0 0 0 0 0 0 0 0
CIN
-5 -22 -17 -15 -4 -9 -8 -19 -14 -11 -7 -9 -13 -12 -18 -4 -0 -0 -1 -3 -0 -0 -0 -0 -0 -0 -0 -0 -12 -3 -3 -11 -13
-9 -5 -4 -0 -2 -1 -2 -15 -12 -8 -13 -23 -21 -31 -8 -0 -0 -0 -0 -0 -0 -0 -0 -0 -0 -0 -0 -0 -0 -2 -1 -1 -13
-16 -10 -1 -0 -0 -0 -2 -0 -5 -11 -14 -21 -33 -67 -14 -0 -0 -0 -0 -10 -0 -0 -0 -0 -0 -0 -0 -0 -1 -0 -9 -32 -38
-0 -0 -0 -0 -2 -11 -7 -2 -3 -10 -24 -39 -67 -57 -21 -0 -0 -0 -0 -18 -9 -0 -0 -2 -2 -0 -0 -0 -1 -4 -5 -18 -20
-9 -2 -0 -0 -0 -0 -0 -9 -10 -24 -16 -12 -71 -34 -23 -0 -0 -2 -0 -7 -7 -10 -10 -1 -3 -2 -1 -1 -0 -0 -0 -0 -2
-18 -41 -17 -1 -2 -3 -14 -11 -1 -3 -12 -19 -62 -17 -0 -0 -0 -1 -10 -3 -1 -8 -5 -1 -1 -6 -3 -4 -1 -0 -0 -0 -17
-81 -32 -0 -140 -129 -78 -48 -23 -6 -1 -97 -37 -103 -21 -7 -5 -3 -0 -3 -0 -0 -2 -5 -11 -1 -6 -1 -2 -2 -3 -0 -0 -11
-0 -0 -0 -36 -116 -86 -86 -95 -82 -48 -29 -14 -0 -44 -2 -1 -0 -0 -3 -0 -0 -0 -0 -3 -4 -1 -0 -3 -0 -1 -1 -5 -16
-0 -0 -0 -102 -68 -39 -0 -0 -0 -0 -1 -0 -1 -13 -33 -11 -12 -0 -0 -10 -0 -0 -0 -0 -0 -3 -7 -2 -4 -1 -5 -19 -0
-0 -0 -0 -2 -0 -0 -2 -11 -0 -0 -0 -0 -0 -0 -0 -0 -0 -0 -0 -0 -0 -2 -3 -0 -0 -0 -2 -4 -5 -3 -1 -3 -0
-0 -0 -1 -9 -12 -4 -24 -21 -10 -0 -0 -1 -0 -0 -0 -0 -0 -0 -0 -0 -0 -0 -0 -0 -0 -0 -0 -2 -6 -5 -1 -0 -0
-0 -0 -0 -7 -0 -1 -7 -0 -3 -0 -0 -0 -0 -0 -0 -0 -0 -0 -0 -8 -0 -0 -0 -0 -0 -0 -0 -0 -0 -3 -1 -4 -0
-0 -0 -0 -0 -5 -0 -0 -28 -1 -1 -1 -1 -0 -0 -0 -0 -0 -0 -0 -4 -1 -0 -0 -0 -0 -0 -0 -0 -2 -0 -0 -17 -2
-0 -0 -0 -0 -0 -0 -3 -0 -43 -19 -3 -0 -0 -0 -0 -0 -0 -0 -0 -0 -0 -0 -0 -0 -0 -0 -0 -0 -0 -10 -0 -0 -0
-0 -0 -0 -0 -0 -0 -0 -0 -15 -4 -0 -0 -0 -0 -0 -0 -0 -0 -0 -0 -0 -0 -0 -0 -0 -0 -0 -0 -0 -0 -0 -0 -0
-0 -0 -0 -0 -0 -0 -0 -0 -0 -0 -0 -0 -0 -0 -0 -0 -0 -0 -0 -0 -0 -0 -0 -0 -0 -0 -0 -0 -0 -0 -0 -0 -0
-0 -0 -0 -0 -0 -0 -0 -0 -0 -0 -0 -0 -0 -0 -0 -0 -0 -0 -0 -0 -0 -0 -0 -0 -0 -0 -0 -0 -0 -0 -0 -0 -0
-0 -0 -0 -0 -0 -0 -0 -0 -0 -0 -0 -0 -0 -0 -0 -0 -0 -0 -0 -0 -0 -0 -0 -0 -0 -0 -0 -0 -0 -0 -0 -0 -0
-0 -0 -0 -0 -0 -0 -0 -0 -0 -0 -0 -0 -0 -0 -0 -0 -0 -0 -0 -0 -0 -0 -0 -0 -0 -0 -0 -0 -0 -0 -0 -0 -0
-0 -0 -0 -0 -0 -0 -0 -0 -0 -0 -0 -0 -0 -0 -0 -0 -0 -0 -0 -0 -0 -0 -0 -0 -0 -0 -0 -0 -0 -0 -0 -0 -0
Wind_Speed
19 21 34 40 37 32 42 41 37 33 37 35 34 31 30 25 30 28 27 28 28 27 28 27 25 27 27 29 28 26 26 26 26
17 20 31 29 31 25 33 34 34 34 36 35 35 34 31 29 34 32 28 29 29 32 31 28 28 29 28 27 27 28 28 27 28
18 19 20 24 25 30 29 34 32 33 35 37 35 35 26 23 30 31 27 26 31 30 30 32 29 31 32 29 27 27 27 nan nan
15 20 17 25 28 31 32 31 35 33 37 35 35 nan 29 27 26 26 23 22 26 27 30 30 30 31 32 31 29 28 27 nan nan
9 12 11 18 26 29 31 30 34 38 38 nan nan nan nan 29 27 29 26 26 23 24 23 22 26 39 34 31 29 26 28 28 29
11 nan 10 13 23 25 29 27 28 36 nan nan nan nan 29 29 29 30 30 31 30 23 24 27 29 27 36 33 30 31 31 29 nan
nan nan nan nan nan nan nan nan nan 28 nan nan nan nan nan nan nan 30 34 34 32 31 28 28 19 13 16 32 31 35 32 30 26
nan nan nan nan nan nan nan nan nan nan nan nan nan nan nan nan nan nan 33 37 33 31 29 26 25 27 21 13 25 37 35 29 nan
nan nan nan nan nan nan nan nan nan nan nan nan nan nan nan nan nan nan nan nan 35 33 29 25 23 23 18 17 19 17 25 nan nan
nan nan nan nan nan nan nan nan nan nan nan nan nan nan nan nan nan nan nan nan nan nan nan 32 28 21 18 21 23 23 22 nan nan
nan nan nan nan nan nan nan nan nan nan nan nan nan nan nan nan nan nan nan nan nan nan nan nan nan 34 25 17 22 nan nan nan nan
nan nan nan nan nan nan nan nan nan nan nan nan nan nan nan nan nan nan nan nan nan nan nan nan nan nan nan nan 31 nan nan nan nan
nan nan nan nan nan nan nan nan nan nan nan nan nan nan nan nan nan nan nan nan nan nan nan nan nan nan nan nan nan nan nan nan nan
nan nan nan nan nan nan nan nan nan nan nan nan nan nan nan nan nan nan nan nan nan nan nan nan nan nan nan nan nan nan nan nan nan
nan nan nan nan nan nan nan nan nan nan nan nan nan nan nan nan nan nan nan nan nan nan nan nan nan nan nan nan nan nan nan nan nan
nan nan nan nan nan nan nan nan nan nan nan nan nan nan nan nan nan nan nan nan nan nan nan nan nan nan nan nan nan nan nan nan nan
nan nan nan nan nan nan nan nan nan nan nan nan nan nan nan nan nan nan nan nan nan nan nan nan nan nan nan nan nan nan nan nan nan
nan nan nan nan nan nan nan nan nan nan nan nan nan nan nan nan nan nan nan nan nan nan nan nan nan nan nan nan nan nan nan nan nan
nan nan nan nan nan nan nan nan nan nan nan nan nan nan nan nan nan nan nan nan nan nan nan nan nan nan nan nan nan nan nan nan nan
nan nan nan nan nan nan nan nan nan nan nan nan nan nan nan nan nan nan nan nan nan nan nan nan nan nan nan nan nan nan nan nan nan
Wind_Direction
237 247 240 242 255 246 224 215 216 227 231 230 234 233 224 231 234 239 236 236 229 234 230 232 240 245 245 251 249 248 249 245 243
260 253 252 247 242 235 209 207 223 229 232 226 227 227 228 249 226 233 239 249 245 237 237 235 238 245 249 245 244 242 240 242 242
241 228 242 239 228 214 212 210 227 230 229 226 224 223 218 230 226 233 239 242 250 240 239 239 240 240 240 240 240 240 242 nan nan
255 242 225 221 222 215 217 216 220 225 229 227 226 nan 216 230 226 229 229 236 240 238 236 245 250 244 239 240 241 244 245 nan nan
217 255 249 237 226 221 220 219 224 224 226 nan nan nan nan 227 226 231 224 226 236 257 270 260 260 245 237 241 245 245 246 247 250
220 nan 240 249 226 224 217 227 227 234 nan nan nan nan 226 226 222 223 219 233 234 243 260 266 262 252 247 237 243 245 245 246 nan
nan nan nan nan nan nan nan nan nan 214 nan nan nan nan nan nan nan 221 215 233 237 240 251 263 262 238 255 242 242 247 245 247 249
nan nan nan nan nan nan nan nan nan nan nan nan nan nan nan nan nan nan 216 232 237 240 245 256 261 252 241 253 245 248 245 250 nan
nan nan nan nan nan nan nan nan nan nan nan nan nan nan nan nan nan nan nan nan 229 234 238 239 249 255 255 276 277 267 258 nan nan
nan nan nan nan nan nan nan nan nan nan nan nan nan nan nan nan nan nan nan nan nan nan nan 233 237 252 258 256 254 249 252 nan nan
nan nan nan nan nan nan nan nan nan nan nan nan nan nan nan nan nan nan nan nan nan nan nan nan nan 235 237 244 263 nan nan nan nan
nan nan nan nan nan nan nan nan nan nan nan nan nan nan nan nan nan nan nan nan nan nan nan nan nan nan nan nan 232 nan nan nan nan
nan nan nan nan nan nan nan nan nan nan nan nan nan nan nan nan nan nan nan nan nan nan nan nan nan nan nan nan nan nan nan nan nan
nan nan nan nan nan nan nan nan nan nan nan nan nan nan nan nan nan nan nan nan nan nan nan nan nan nan nan nan nan nan nan nan nan
nan nan nan nan nan nan nan nan nan nan nan nan nan nan nan nan nan nan nan nan nan nan nan nan nan nan nan nan nan nan nan nan nan
nan nan nan nan nan nan nan nan nan nan nan nan nan nan nan nan nan nan nan nan nan nan nan nan nan nan nan nan nan nan nan nan nan
nan nan nan nan nan nan nan nan nan nan nan nan nan nan nan nan nan nan nan nan nan nan nan nan nan nan nan nan nan nan nan nan nan
nan nan nan nan nan nan nan nan nan nan nan nan nan nan nan nan nan nan nan nan nan nan nan nan nan nan nan nan nan nan nan nan nan
nan nan nan nan nan nan nan nan nan nan nan nan nan nan nan nan nan nan nan nan nan nan nan nan nan nan nan nan nan nan nan nan nan
nan nan nan nan nan nan nan nan nan nan nan nan nan nan nan nan nan nan nan nan nan nan nan nan nan nan nan nan nan nan nan nan nan